User: anonymous   Login
Location: Chenango Forks
(42.2242°N, 75.8278°W)
Time: 22:05:13
(UTC-04:00)
Language:

Okean 3 Rocket - Orbit

View from above orbital plane
View from above orbital plane
View from above satellite
View from above satellite

Ground track
Ground track

The orbit data is extracted from the following two-line orbital elements,

1 21398U 91039B   16148.48065843  .00000123  00000-0  13280-4 0  9997
2 21398  82.5243 225.2090 0021691  11.1830 116.2828 14.79606757346870
Epoch (UTC): 27 May 2016 11:32:08
Eccentricity: 0.0021691
inclination: 82.5243°
perigee height: 615 km
apogee height: 646 km
right ascension of ascending node: 225.2090°
argument of perigee: 11.1830°
revolutions per day: 14.79606757
mean anomaly at epoch: 116.2828°
orbit number at epoch: 34687

The dashed part of the orbit path shows where the satellite is in the earth's shadow,  

DLR